Location: Pachappa
(33.9467°N, 117.3850°W)
Time: 21:49:04
(UTC+00:00)

Daily predictions for brighter satellites

Satellite Brightness Start Highest point End
(mag) Time Altitude Azimuth Time Altitude Azimuth Time Altitude Azimuth
Cosmos 1741 Rocket 4.3 12:05:56 56° SSE 12:06:44 64° ESE 12:11:57 10° NNE
DELTA 2 R/B (1) 4.1 12:11:18 47° N 12:11:39 47° N 12:17:02 10° ENE
ALOS 4.2 12:13:52 10° NE 12:17:52 28° E 12:21:51 10° SSE
Cosmos 2061 Rocket 4.3 12:14:09 10° N 12:20:19 64° E 12:26:26 10° SSE
Cosmos 1802 Rocket 4.0 12:17:47 10° N 12:24:14 82° E 12:30:35 10° S
OAO 3 Rocket 3.1 12:24:10 79° S 12:24:15 80° SSE 12:29:09 10° E
Cosmos 2016 Rocket 4.3 12:18:25 10° N 12:24:43 68° E 12:31:02 10° SSE
CZ-2C R/B 2.9 12:24:24 10° N 12:28:12 43° NNW 12:28:12 43° NNW
ATLAS 2AS CENTAUR R/B 4.3 12:23:24 10° NNW 12:30:02 33° NE 12:36:08 10° ESE
Sich 1 2.9 12:29:22 10° N 12:33:42 89° ENE 12:38:04 10° S
Cosmos 1151 Rocket 3.5 12:34:05 10° S 12:38:19 61° E 12:42:38 10° NNE
Cosmos 1818 3.4 12:37:47 33° SSW 12:40:18 83° WNW 12:45:47 10° NNE
ATLAS 5 CENTAUR R/B 4.1 12:38:31 10° SSE 12:41:26 19° ESE 12:44:30 10° ENE
Meteor PRIRODA 3.8 12:38:56 10° NNE 12:42:35 70° E 12:46:10 10° S
Cosmos 1238 Rocket 2.9 12:37:49 10° NNW 12:42:39 67° W 12:46:35 10° S
ERBS 4.4 12:46:48 17° N 12:46:48 17° N 12:47:59 10° N
Atlas Centaur 2 3.0 12:42:14 34° WSW 12:45:46 68° S 12:54:10 10° ESE
STARLINK-1129 4.3 12:45:04 29° N 12:46:25 43° NE 12:49:51 10° ESE
OAO 2 Rocket 3.4 12:46:23 41° WSW 12:48:12 78° SSE 12:53:29 10° E
Cosmos 1400 Rocket 4.3 12:50:31 23° NNW 12:50:31 23° NNW 12:52:26 10° N
Delta 2 Rocket 4.2 12:48:24 29° SSW 12:49:32 37° SSE 12:52:53 10° E
Cosmos 1315 Rocket 2.9 12:46:09 10° S 12:50:03 73° E 12:53:57 10° NNE
Cosmos 2173 Rocket 4.1 12:44:55 10° NNW 12:50:47 46° W 12:56:34 10° SSW
CZ-4B R/B 4.3 12:47:12 10° N 12:51:32 50° WNW 12:53:11 33° SW
Cosmos 1933 3.9 12:48:36 10° S 12:52:37 60° E 12:56:38 10° NNE
STARLINK-1134 3.9 12:52:50 27° NNW 12:54:31 52° NE 12:58:02 10° ESE
STARLINK-1135 3.8 12:55:55 26° NNW 12:57:44 57° NE 13:01:17 10° ESE
STARLINK-1141 3.6 12:59:04 25° NNW 13:01:01 62° NE 13:04:34 10° SE
Cosmos 1606 2.6 12:58:26 10° S 13:02:13 85° E 13:06:00 10° N
SKYMED 2 4.0 12:58:15 10° SSE 13:02:33 65° ENE 13:06:51 10° N
STARLINK-1140 3.5 13:02:13 23° NW 13:04:18 68° NE 13:07:53 10° SE
Cosmos 1484 Rocket 3.0 13:01:54 10° N 13:05:45 47° WNW 13:09:37 10° SSW
STARLINK-1156 3.4 13:05:23 22° NW 13:07:36 74° NE 13:11:12 10° SE
Iridium 51 4.0 13:04:11 10° S 13:07:52 88° E 13:11:24 10° N
CZ-4B DEB 4.5 13:02:44 10° NNE 13:08:11 71° ESE 13:13:37 10° S
STARLINK-1205 4.3 13:06:56 14° S 13:08:26 26° SE 13:10:27 10° ENE
STARLINK-1205 4.2 13:07:50 15° S 13:09:09 25° SE 13:11:00 10° ENE
STARLINK-1239 4.5 13:07:13 10° SSW 13:09:39 29° SE 13:12:09 10° ENE
STARLINK-1241 4.5 13:07:15 10° SSW 13:09:42 29° SE 13:12:11 10° ENE
STARLINK-1241 4.4 13:08:06 11° SSW 13:10:20 28° SE 13:12:39 10° ENE
STARLINK-1231 4.1 13:08:55 14° S 13:10:29 27° SE 13:12:30 10° ENE
STARLINK-1236 4.4 13:08:15 10° SSW 13:10:43 30° SE 13:13:13 10° ENE
STARLINK-1148 3.3 13:08:33 21° NW 13:10:53 80° NE 13:14:30 10° SE
STARLINK-1209 4.1 13:09:39 15° S 13:11:03 27° SE 13:12:57 10° ENE
STARLINK-1239 4.3 13:09:07 11° SSW 13:11:24 29° SE 13:13:44 10° ENE
STARLINK-1237 4.3 13:09:18 10° SSW 13:11:49 31° SE 13:14:21 10° ENE
Cosmos 1328 Rocket 3.7 13:08:03 10° SSW 13:12:19 48° W 13:16:38 10° N
STARLINK-1240 4.3 13:10:10 11° SSW 13:12:29 30° SE 13:14:51 10° ENE
STARLINK-1229 4.0 13:11:07 14° S 13:12:42 29° SE 13:14:45 10° ENE
STARLINK-1238 3.9 13:11:13 14° S 13:12:48 29° SE 13:14:51 10° ENE
Meteor 2-20 4.3 13:06:47 10° SSW 13:12:48 73° W 13:18:53 10° N
STARLINK-1105 3.9 13:11:51 15° S 13:13:17 28° SE 13:15:12 10° ENE
STARLINK-1198 3.9 13:11:39 14° S 13:13:17 30° SE 13:15:20 10° ENE
SJ-12 3.9 13:09:11 10° N 13:13:17 66° WNW 13:17:22 10° SSW
STARLINK-1212 3.9 13:11:58 15° S 13:13:23 28° SE 13:15:18 10° ENE
STARLINK-1216 4.2 13:11:11 10° SSW 13:13:33 31° SE 13:15:57 10° ENE
STARLINK-1232 3.9 13:12:01 14° S 13:13:39 30° SE 13:15:42 10° ENE
STARLINK-1270 3.9 13:12:06 14° S 13:13:44 31° SE 13:15:49 10° ENE
STARLINK-1247 3.9 13:12:09 14° S 13:13:46 30° SE 13:15:50 10° ENE
STARLINK-1271 3.9 13:12:11 14° S 13:13:48 31° SE 13:15:52 10° ENE
STARLINK-1206 3.9 13:12:22 15° S 13:13:49 29° SE 13:15:45 10° ENE
STARLINK-1197 3.9 13:12:12 14° S 13:13:51 31° SE 13:15:55 10° ENE
STARLINK-1235 3.9 13:12:12 14° SSW 13:13:51 31° SE 13:15:56 10° ENE
STARLINK-1191 3.9 13:12:13 14° SSW 13:13:52 31° SE 13:15:57 10° ENE
STARLINK-1254 3.9 13:12:14 14° SSW 13:13:52 31° SE 13:15:57 10° ENE
STARLINK-1199 3.9 13:12:27 15° S 13:13:54 29° SE 13:15:51 10° ENE
STARLINK-1234 4.2 13:11:27 10° SSW 13:14:03 34° SE 13:16:37 10° ENE
STARLINK-1105 3.9 13:12:30 14° SSW 13:14:09 31° SE 13:16:14 10° ENE
STARLINK-1227 3.8 13:12:43 15° S 13:14:10 29° SE 13:16:07 10° ENE
STARLINK-1158 3.2 13:11:44 19° NW 13:14:13 87° NE 13:17:49 10° SE
STARLINK-1220 3.8 13:12:37 14° SSW 13:14:16 31° SE 13:16:22 10° ENE
STARLINK-1199 3.8 13:12:37 14° SSW 13:14:16 31° SE 13:16:21 10° ENE
STARLINK-1210 3.8 13:12:49 15° S 13:14:17 29° SE 13:16:14 10° ENE
STARLINK-1208 3.8 13:12:38 14° SSW 13:14:17 31° SE 13:16:23 10° ENE
STARLINK-1226 3.8 13:12:52 15° S 13:14:20 30° SE 13:16:17 10° ENE
STARLINK-1247 3.8 13:12:54 15° S 13:14:21 29° SE 13:16:17 10° ENE
STARLINK-1246 3.8 13:12:44 14° SSW 13:14:24 31° SE 13:16:29 10° ENE
STARLINK-1218 3.8 13:12:57 15° S 13:14:25 30° SE 13:16:20 10° ENE
STARLINK-1217 3.8 13:12:46 14° SSW 13:14:25 31° SE 13:16:30 10° ENE
STARLINK-1254 3.8 13:12:59 15° S 13:14:27 30° SE 13:16:23 10° ENE
STARLINK-1191 3.8 13:13:01 15° S 13:14:29 30° SE 13:16:25 10° ENE
STARLINK-1245 3.8 13:12:53 14° SSW 13:14:32 31° SE 13:16:37 10° ENE
STARLINK-1154 3.8 13:12:52 14° SSW 13:14:32 32° SE 13:16:38 10° ENE
STARLINK-1211 3.8 13:12:54 14° SSW 13:14:34 32° SE 13:16:40 10° ENE
STARLINK-1189 3.8 13:12:53 14° SSW 13:14:34 32° SE 13:16:40 10° ENE
STARLINK-1162 3.1 13:12:20 20° NW 13:14:40 88° SW 13:18:12 10° SE
STARLINK-1237 4.1 13:12:18 10° SSW 13:14:43 33° SE 13:17:08 10° ENE
STARLINK-1215 3.8 13:13:15 15° S 13:14:44 30° SE 13:16:40 10° ENE
STARLINK-1243 3.8 13:13:04 14° SSW 13:14:45 32° SE 13:16:50 10° ENE
STARLINK-1188 3.8 13:13:05 14° SSW 13:14:45 32° SE 13:16:50 10° ENE
STARLINK-1214 3.8 13:13:06 14° SSW 13:14:47 32° SE 13:16:52 10° ENE
STARLINK-1208 3.8 13:13:20 15° S 13:14:50 30° SE 13:16:47 10° ENE
STARLINK-1231 3.8 13:13:23 15° S 13:14:52 30° SE 13:16:49 10° ENE
STARLINK-1203 3.8 13:13:15 14° SSW 13:14:56 32° SE 13:17:01 10° ENE
STARLINK-1219 3.8 13:13:28 15° S 13:14:57 30° SE 13:16:54 10° ENE
STARLINK-1212 3.8 13:13:18 14° SSW 13:14:59 32° SE 13:17:04 10° ENE
STARLINK-1217 3.8 13:13:29 15° S 13:15:00 31° SE 13:16:57 10° ENE
STARLINK-1210 3.8 13:13:21 14° SSW 13:15:02 32° SE 13:17:08 10° ENE
STARLINK-1202 4.1 13:12:29 10° SSW 13:15:05 35° SE 13:17:42 10° ENE
STARLINK-1232 3.8 13:13:38 15° S 13:15:08 30° SE 13:17:05 10° ENE
STARLINK-1222 3.8 13:13:39 15° S 13:15:09 31° SE 13:17:07 10° ENE
STARLINK-1211 3.8 13:13:40 14° S 13:15:10 31° SE 13:17:09 10° ENE
STARLINK-1238 3.7 13:13:42 14° S 13:15:13 31° SE 13:17:11 10° ENE
STARLINK-1222 3.8 13:13:34 14° SSW 13:15:16 32° SE 13:17:22 10° ENE
STARLINK-1187 3.8 13:13:35 14° SSW 13:15:17 32° SE 13:17:24 10° ENE
STARLINK-1229 3.7 13:13:50 14° S 13:15:21 31° SE 13:17:19 10° ENE
STARLINK-1214 3.7 13:13:52 15° S 13:15:23 31° SE 13:17:21 10° ENE
STARLINK-1218 3.8 13:13:47 14° SSW 13:15:30 33° SE 13:17:36 10° ENE
STARLINK-1206 3.7 13:13:48 14° SSW 13:15:31 33° SE 13:17:37 10° ENE
STARLINK-1271 3.7 13:14:00 14° SSW 13:15:32 31° SE 13:17:29 10° ENE
STARLINK-1270 3.7 13:14:02 14° SSW 13:15:34 31° SE 13:17:33 10° ENE
STARLINK-1227 3.7 13:13:55 14° SSW 13:15:38 33° SE 13:17:44 10° ENE
STARLINK-1209 3.7 13:13:58 14° SSW 13:15:40 33° SE 13:17:46 10° ENE
STARLINK-1245 3.7 13:14:10 14° SSW 13:15:41 31° SE 13:17:39 10° ENE
STARLINK-1233 3.7 13:14:00 14° SSW 13:15:42 33° SE 13:17:48 10° ENE
STARLINK-1201 3.7 13:13:59 14° SSW 13:15:42 33° SE 13:17:49 10° ENE
STARLINK-1202 4.0 13:13:17 10° SSW 13:15:44 34° SE 13:18:10 10° ENE
STARLINK-1154 3.7 13:14:15 14° SSW 13:15:47 31° SE 13:17:45 10° ENE
STARLINK-1219 3.7 13:14:06 14° SSW 13:15:49 33° SE 13:17:56 10° ENE
STARLINK-1187 3.7 13:14:18 14° SSW 13:15:50 31° SE 13:17:48 10° ENE
STARLINK-1226 3.7 13:14:11 14° SSW 13:15:55 33° SE 13:18:01 10° ENE
STARLINK-1197 3.7 13:14:31 14° SSW 13:16:03 32° SE 13:18:02 10° ENE
STARLINK-1204 3.7 13:14:36 14° SSW 13:16:09 32° SE 13:18:07 10° ENE
STARLINK-1189 3.7 13:14:39 14° SSW 13:16:12 32° SE 13:18:11 10° ENE
STARLINK-1201 3.7 13:14:46 14° SSW 13:16:19 32° SE 13:18:18 10° ENE
STARLINK-1233 3.7 13:14:48 14° SSW 13:16:20 32° SE 13:18:18 10° ENE
STARLINK-1198 3.7 13:14:50 14° SSW 13:16:24 32° SE 13:18:23 10° ENE
STARLINK-1188 3.6 13:14:55 14° SSW 13:16:29 32° SE 13:18:28 10° ENE
STARLINK-1215 3.7 13:14:52 14° SSW 13:16:37 34° SE 13:18:45 10° ENE
STARLINK-1221 3.6 13:15:36 14° SSW 13:17:12 33° SE 13:19:12 10° ENE
Cosmos 1833 Rocket 3.6 13:12:09 10° S 13:17:36 53° ESE 13:23:05 10° NNE
STARLINK-1157 3.1 13:15:13 19° NW 13:17:40 82° SW 13:21:13 10° SE
STARLINK-1216 3.9 13:15:42 10° SSW 13:18:23 39° SE 13:21:02 10° ENE
STARLINK-1224 3.9 13:15:44 10° SSW 13:18:24 39° SE 13:21:04 10° ENE
STARLINK-1224 3.8 13:16:30 10° SSW 13:19:03 38° SE 13:21:31 10° ENE
GEOS 3 Rocket 3.7 13:14:31 10° NNE 13:19:52 88° WNW 13:25:14 10° SW
STARLINK-1225 3.7 13:17:34 10° SSW 13:20:06 40° SE 13:22:36 10° ENE
STARLINK-1228 3.8 13:17:53 10° SSW 13:20:35 42° SE 13:23:17 10° ENE
STARLINK-1230 3.8 13:17:55 10° SSW 13:20:37 42° SE 13:23:20 10° ENE
STARLINK-1159 3.1 13:18:14 18° NW 13:20:48 75° SW 13:24:20 10° SE
STARLINK-1230 3.7 13:18:41 10° SSW 13:21:15 41° SE 13:23:47 10° ENE
BREEZE-M DEB (TANK) 4.5 13:19:04 18° WNW 13:21:19 23° NW 13:23:55 10° NNE
Centaur D-1A AC-32 4.3 13:18:44 11° SW 13:21:38 19° S 13:27:23 10° SE
STARLINK-1243 3.6 13:19:44 10° SSW 13:22:20 43° SE 13:24:51 10° ENE
ADEOS Rocket 4.3 13:16:15 10° SE 13:22:27 50° ENE 13:29:21 10° N
STARLINK-1149 3.3 13:21:46 27° W 13:22:41 35° SW 13:25:19 10° SSE
Shenzhou-11 Module 1.4 13:22:10 27° WNW 13:23:23 76° SSW 13:25:59 10° SE
STARLINK-1236 3.5 13:20:55 10° SSW 13:23:31 45° SE 13:26:04 10° ENE
Cosmos 2082 Rocket 3.9 13:18:44 10° SSE 13:23:47 36° ESE 13:28:51 10° NE
STARLINK-1171 3.1 13:21:17 16° NW 13:23:59 69° SW 13:27:30 10° SE
STARLINK-1269 3.5 13:22:22 10° SSW 13:25:08 50° SE 13:27:53 10° NE
H-2A R/B 3.8 13:21:37 10° NNW 13:25:11 24° WNW 13:28:34 11° WSW
STARLINK-1269 3.3 13:23:09 10° SSW 13:25:46 49° SE 13:28:21 10° NE
COSMOS 2406 3.2 13:20:37 10° SSW 13:26:14 67° WNW 13:31:53 10° NNE
STARLINK-1200 3.4 13:23:28 10° SSW 13:26:14 52° SE 13:29:00 10° NE
STARLINK-1200 3.2 13:24:16 10° SSW 13:26:54 51° SE 13:29:30 10° NE
STARLINK-1155 3.2 13:24:14 15° NW 13:27:03 64° SW 13:30:34 10° SE
STARLINK-1192 3.3 13:24:41 10° SSW 13:27:28 54° SE 13:30:15 10° NE
STARLINK-1192 3.2 13:25:27 10° SSW 13:28:06 54° SE 13:30:42 10° NE
OAO 1 Rocket 4.4 13:24:14 17° W 13:28:23 86° N 13:33:42 10° E
STARLINK-1240 3.2 13:25:45 10° SSW 13:28:32 56° SE 13:31:20 10° NE
STARLINK-1244 3.2 13:25:46 10° SSW 13:28:34 57° SE 13:31:22 10° NE
STARLINK-1244 3.1 13:26:32 10° SSW 13:29:11 56° SE 13:31:49 10° NE
STARLINK-1138 3.1 13:26:55 10° SSW 13:29:42 59° SE 13:32:30 10° NE
STARLINK-1166 3.3 13:27:18 14° NW 13:30:13 58° SW 13:33:43 10° SSE
STARLINK-1138 3.0 13:27:42 10° SSW 13:30:23 59° SE 13:33:00 10° NE
STARLINK-1143 3.1 13:28:02 10° SW 13:30:51 62° SE 13:33:40 10° NE
Cosmos 1340 3.1 13:27:24 10° NNW 13:30:55 39° W 13:34:25 10° SSW
STARLINK-1143 2.9 13:28:49 10° SW 13:31:31 61° SE 13:34:09 10° NE
FENGYUN 3A 3.9 13:27:04 10° N 13:32:18 49° WNW 13:37:29 10° SW
USA 267 3.2 13:25:51 10° SE 13:32:23 78° SW 13:38:56 10° NW
STARLINK-1165 3.4 13:30:19 13° NW 13:33:21 53° SW 13:36:49 10° SSE
SL-24 R/B - RUBIN 2 4.0 13:29:07 10° SW 13:34:11 75° WNW 13:40:03 10° NNE
Cosmos 468 Rocket 4.5 13:30:45 10° NW 13:35:36 38° W 13:40:24 10° SSW
STARLINK-1169 3.5 13:33:20 12° WNW 13:36:30 48° SW 13:39:55 10° SSE
Meteor 2-20 Rocket 4.5 13:33:36 10° SSW 13:39:33 59° W 13:45:33 10° N
STARLINK-1178 3.6 13:36:21 11° WNW 13:39:37 44° SW 13:43:01 10° SSE
CZ-4B R/B 4.5 13:38:30 10° NW 13:40:11 13° WNW 13:41:11 12° W
Cosmos 1346 Rocket 3.2 13:37:24 10° NNW 13:41:02 39° W 13:44:41 10° SSW
Cosmos 1633 Rocket 4.1 13:38:02 10° NW 13:41:37 25° W 13:45:12 10° SW
STARLINK-1120 3.7 13:39:19 10° WNW 13:42:42 40° SW 13:46:03 10° SSE
Cosmos 1515 Rocket 4.1 13:38:44 10° SSW 13:42:48 36° W 13:46:53 10° NNW
Cosmos 2084 Rocket 4.3 13:40:03 10° NNW 13:44:26 55° NE 13:48:48 10° SE
H-2A R/B 3.5 13:41:15 10° NNE 13:44:53 55° E 13:48:30 10° S
STARLINK-1131 3.9 13:42:31 10° WNW 13:45:51 37° SW 13:49:09 10° SSE
STARLINK-67 2.9 13:44:04 10° WSW 13:46:33 39° NW 13:49:01 10° NNE
NOSS 3-4 (A) 4.1 13:39:46 10° NNW 13:47:04 87° ENE 13:55:00 10° SSE
NOSS 3-4 (C) 4.1 13:39:53 10° NNW 13:47:10 86° ENE 13:55:06 10° SSE
STARLINK-1190 4.0 13:45:47 10° WNW 13:49:02 34° SW 13:52:18 10° SSE
Cosmos 1814 Rocket 4.0 13:45:05 10° NNW 13:50:21 79° WSW 13:55:39 10° S
COSMO-SKYMED 1 3.3 13:46:47 10° SSW 13:50:39 32° W 13:54:33 10° NW
Cosmos 1933 Rocket 3.7 13:49:15 10° NNW 13:53:28 51° W 13:57:39 10° SSW
Cosmos 1763 Rocket 4.2 13:49:57 10° NW 13:54:36 32° W 13:59:12 10° SSW
Cosmos 841 Rocket 3.6 13:49:43 10° NNW 13:54:54 62° WSW 14:00:05 10° S
ALOS 3.4 13:51:26 10° NNW 13:55:06 23° WNW 13:58:46 10° WSW
